Regional Weather Roundup
Issued by NWS

Home | Current Version | Previous Version | Text Only | Print | Product List | Glossary On
Versions: 1 2 3 4 5 6 7 8 9 10 11 12 13 14 15 16 17 18 19 20 21 22 23 24 25 26 27 28 29 30 31 32 33 34 35 36 37 38 39 40 41 42 43 44 45 46 47 48 49 50
000
ASUS43 KTOP 311859
RWRKS

WEATHER ROUNDUP FOR KANSAS
NATIONAL WEATHER SERVICE GOODLAND KS
200 PM CDT TUE MAY 31 2016

NOTE:  "FAIR" INDICATES FEW OR NO CLOUDS BELOW 12,000 FEET WITH NO
SIGNIFICANT WEATHER AND/OR OBSTRUCTIONS TO VISIBILITY.

KSZ001>006-013>018-027>032-041>047-312000-
NORTHWEST KANSAS

CITY           SKY/WX    TMP DP  RH WIND       PRES   REMARKS
GOODLAND       MOSUNNY   67  48  50 N7        30.06F
HAYS           MOSUNNY   72  55  56 N14G22    29.99F
RUSSELL        MOSUNNY   71  60  68 N15       29.97F
$$

KSZ061>065-074>080-084>089-312000-
SOUTHWEST KANSAS

CITY           SKY/WX    TMP DP  RH WIND       PRES   REMARKS
DODGE CITY     CLOUDY    71  60  68 NE10      30.00F
ELKHART          N/A     71  57  61 NE6         N/A
GARDEN CITY    CLOUDY    70  56  61 NE8       30.01F
GREAT BEND     PTSUNNY   72  57  60 NE14      29.98R
LIBERAL        CLOUDY    70  55  60 NE9       30.03F
$$

KSZ066>073-081>083-090>101-312000-
SOUTHEAST KANSAS

CITY           SKY/WX    TMP DP  RH WIND       PRES   REMARKS
CHANUTE        PTSUNNY   76  65  68 VRB3      29.90F
COFFEYVILLE    MOSUNNY   77  67  71 SE6       29.90R
HUTCHINSON     CLOUDY    76  63  64 NE8       29.93F
MEDICINE LODGE   N/A     78  56  46 N6        29.93F
NEWTON         MOSUNNY   73  61  64 NE3       29.97S
PARSONS        MOSUNNY   79  68  69 VRB3      29.91F
WICHITA INTL   MOSUNNY   77  62  59 NE13      29.92F
WICHITA JABRA  SUNNY     74  63  68 NE9       29.93F
WINFIELD       MOSUNNY   80  63  55 VRB6      29.92F
$$

KSZ007>012-019>026-033>040-048>060-102>105-312000-
NORTHEAST KANSAS

CITY           SKY/WX    TMP DP  RH WIND       PRES   REMARKS
CONCORDIA      CLOUDY    73  60  63 NE8       29.97S
EMPORIA        CLOUDY    75  61  61 N8        29.92F
LAWRENCE       CLOUDY    76  62  62 SE5       29.92F
MANHATTAN      CLOUDY    78  60  53 N8        29.92F
OLATHE IND     PTSUNNY   75  63  66 CALM      29.92F
OLATHE EXE     MOSUNNY   77  63  61 N6        29.91F
SALINA         PTSUNNY   75  63  66 N8        29.95F
TOPEKA BILLARD   N/A     76  61  59 E3        29.91F
TOPEKA FORBES  CLOUDY    76  61  59 CALM      29.92F
$$




USA.gov is the U.S. government's official web portal to all federal, state and local government web resources and services.